Year,Month,Day,Hour,Minute,Value (Times are PST for temperature in C)
2016,02,20,00,00,2.50
2016,02,20,00,01,2.50
2016,02,20,00,02,2.50
2016,02,20,00,03,2.50
2016,02,20,00,04,2.50
2016,02,20,00,05,2.40
2016,02,20,00,06,2.40
2016,02,20,00,07,2.50
2016,02,20,00,08,2.50
2016,02,20,00,09,2.50
2016,02,20,00,10,2.50
2016,02,20,00,11,2.50
2016,02,20,00,12,2.50
2016,02,20,00,13,2.50
2016,02,20,00,14,2.50
2016,02,20,00,15,2.50
2016,02,20,00,16,2.50
2016,02,20,00,17,2.50
2016,02,20,00,18,2.50
2016,02,20,00,19,2.50
2016,02,20,00,20,2.50
2016,02,20,00,21,2.50
2016,02,20,00,22,2.50
2016,02,20,00,23,2.50
2016,02,20,00,24,2.50
2016,02,20,00,25,2.50
2016,02,20,00,26,2.50
2016,02,20,00,27,2.50
2016,02,20,00,28,2.50
2016,02,20,00,29,2.50
2016,02,20,00,30,2.50
2016,02,20,00,31,2.50
2016,02,20,00,32,2.50
2016,02,20,00,33,2.50
2016,02,20,00,34,2.50
2016,02,20,00,35,2.50
2016,02,20,00,36,2.50
2016,02,20,00,37,2.50
2016,02,20,00,38,2.60
2016,02,20,00,39,2.60
2016,02,20,00,40,2.60
2016,02,20,00,41,2.60
2016,02,20,00,42,2.60
2016,02,20,00,43,2.60
2016,02,20,00,44,2.60
2016,02,20,00,45,2.60
2016,02,20,00,46,2.60
2016,02,20,00,47,2.60
2016,02,20,00,48,2.60
2016,02,20,00,49,2.60
2016,02,20,00,50,2.60
2016,02,20,00,51,2.60
2016,02,20,00,52,2.60
2016,02,20,00,53,2.60
2016,02,20,00,54,2.60
2016,02,20,00,55,2.60
2016,02,20,00,56,2.60
2016,02,20,00,57,2.60
2016,02,20,00,58,2.60
2016,02,20,00,59,2.60
2016,02,20,01,00,2.60
2016,02,20,01,01,2.60
2016,02,20,01,02,2.60
2016,02,20,01,03,2.60
2016,02,20,01,04,2.60
2016,02,20,01,05,2.70
2016,02,20,01,06,2.70
2016,02,20,01,07,2.70
2016,02,20,01,08,2.70
2016,02,20,01,09,2.70
2016,02,20,01,10,2.70
2016,02,20,01,11,2.70
2016,02,20,01,12,2.70
2016,02,20,01,13,2.70
2016,02,20,01,14,2.70
2016,02,20,01,15,2.70
2016,02,20,01,16,2.70
2016,02,20,01,17,2.70
2016,02,20,01,18,2.70
2016,02,20,01,19,2.70
2016,02,20,01,20,2.70
2016,02,20,01,21,2.70
2016,02,20,01,22,2.70
2016,02,20,01,23,2.70
2016,02,20,01,24,2.70
2016,02,20,01,25,2.70
2016,02,20,01,26,2.70
2016,02,20,01,27,2.70
2016,02,20,01,28,2.70
2016,02,20,01,29,2.70
2016,02,20,01,30,2.70
2016,02,20,01,31,2.80
2016,02,20,01,32,2.80
2016,02,20,01,33,2.80
2016,02,20,01,34,2.80
2016,02,20,01,35,2.80
2016,02,20,01,36,2.80
2016,02,20,01,37,2.80
2016,02,20,01,38,2.80
2016,02,20,01,39,2.80
2016,02,20,01,40,2.80
2016,02,20,01,41,2.80
2016,02,20,01,42,2.80
2016,02,20,01,43,2.80
2016,02,20,01,44,2.80
2016,02,20,01,45,2.80
2016,02,20,01,46,2.80
2016,02,20,01,47,2.80
2016,02,20,01,48,2.80
2016,02,20,01,49,2.80
2016,02,20,01,50,2.80
2016,02,20,01,51,2.80
2016,02,20,01,52,2.80
2016,02,20,01,53,2.90
2016,02,20,01,54,2.90
2016,02,20,01,55,2.90
2016,02,20,01,56,2.90
2016,02,20,01,57,2.90
2016,02,20,01,58,2.90
2016,02,20,01,59,2.90
2016,02,20,02,00,2.90
2016,02,20,02,01,2.90
2016,02,20,02,02,2.90
2016,02,20,02,03,2.90
2016,02,20,02,04,3.00
2016,02,20,02,05,3.00
2016,02,20,02,06,3.00
2016,02,20,02,07,3.00
2016,02,20,02,08,3.00
2016,02,20,02,09,3.00
2016,02,20,02,10,3.00
2016,02,20,02,11,3.00
2016,02,20,02,12,3.10
2016,02,20,02,13,3.10
2016,02,20,02,14,3.10
2016,02,20,02,15,3.10
2016,02,20,02,16,3.10
2016,02,20,02,17,3.10
2016,02,20,02,18,3.10
2016,02,20,02,19,3.10
2016,02,20,02,20,3.10
2016,02,20,02,21,3.10
2016,02,20,02,22,3.10
2016,02,20,02,23,3.10
2016,02,20,02,24,3.10
2016,02,20,02,25,3.10
2016,02,20,02,26,3.10
2016,02,20,02,27,3.10
2016,02,20,02,28,3.10
2016,02,20,02,29,3.10
2016,02,20,02,30,3.10
2016,02,20,02,31,3.10
2016,02,20,02,32,3.10
2016,02,20,02,33,3.10
2016,02,20,02,34,3.10
2016,02,20,02,35,3.20
2016,02,20,02,36,3.10
2016,02,20,02,37,3.20
2016,02,20,02,38,3.20
2016,02,20,02,39,3.20
2016,02,20,02,40,3.20
2016,02,20,02,41,3.20
2016,02,20,02,42,3.20
2016,02,20,02,43,3.20
2016,02,20,02,44,3.20
2016,02,20,02,45,3.20
2016,02,20,02,46,3.20
2016,02,20,02,47,3.20
2016,02,20,02,48,3.20
2016,02,20,02,49,3.20
2016,02,20,02,50,3.20
2016,02,20,02,51,3.20
2016,02,20,02,52,3.20
2016,02,20,02,53,3.20
2016,02,20,02,54,3.20
2016,02,20,02,55,3.20
2016,02,20,02,56,3.20
2016,02,20,02,57,3.20
2016,02,20,02,58,3.20
2016,02,20,02,59,3.20
2016,02,20,03,00,3.20
2016,02,20,03,01,3.20
2016,02,20,03,02,3.20
2016,02,20,03,03,3.20
2016,02,20,03,04,3.20
2016,02,20,03,05,3.20
2016,02,20,03,06,3.20
2016,02,20,03,07,3.20
2016,02,20,03,08,3.20
2016,02,20,03,09,3.20
2016,02,20,03,10,3.20
2016,02,20,03,11,3.20
2016,02,20,03,12,3.20
2016,02,20,03,13,3.30
2016,02,20,03,14,3.30
2016,02,20,03,15,3.30
2016,02,20,03,16,3.30
2016,02,20,03,17,3.30
2016,02,20,03,18,3.30
2016,02,20,03,19,3.30
2016,02,20,03,20,3.30
2016,02,20,03,21,3.30
2016,02,20,03,22,3.30
2016,02,20,03,23,3.30
2016,02,20,03,24,3.30
2016,02,20,03,25,3.30
2016,02,20,03,26,3.30
2016,02,20,03,27,3.30
2016,02,20,03,28,3.30
2016,02,20,03,29,3.30
2016,02,20,03,30,3.30
2016,02,20,03,31,3.30
2016,02,20,03,32,3.30
2016,02,20,03,33,3.30
2016,02,20,03,34,3.30
2016,02,20,03,35,3.30
2016,02,20,03,36,3.30
2016,02,20,03,37,3.30
2016,02,20,03,38,3.30
2016,02,20,03,39,3.30
2016,02,20,03,40,3.30
2016,02,20,03,41,3.30
2016,02,20,03,42,3.30
2016,02,20,03,43,3.30
2016,02,20,03,44,3.30
2016,02,20,03,45,3.30
2016,02,20,03,46,3.30
2016,02,20,03,47,3.30
2016,02,20,03,48,3.30
2016,02,20,03,49,3.30
2016,02,20,03,50,3.30
2016,02,20,03,51,3.30
2016,02,20,03,52,3.30
2016,02,20,03,53,3.30
2016,02,20,03,54,3.30
2016,02,20,03,55,3.30
2016,02,20,03,56,3.30
2016,02,20,03,57,3.30
2016,02,20,03,58,3.30
2016,02,20,03,59,3.30
2016,02,20,04,00,3.30
2016,02,20,04,01,3.30
2016,02,20,04,02,3.30
2016,02,20,04,03,3.30
2016,02,20,04,04,3.30
2016,02,20,04,05,3.30
2016,02,20,04,06,3.30
2016,02,20,04,07,3.30
2016,02,20,04,09,3.30
2016,02,20,04,10,3.30
2016,02,20,04,11,3.30
2016,02,20,04,12,3.30
2016,02,20,04,13,3.30
2016,02,20,04,14,3.30
2016,02,20,04,15,3.30
2016,02,20,04,16,3.30
2016,02,20,04,17,3.30
2016,02,20,04,18,3.30
2016,02,20,04,19,3.30
2016,02,20,04,20,3.30
2016,02,20,04,21,3.30
2016,02,20,04,22,3.30
2016,02,20,04,23,3.30
2016,02,20,04,24,3.30
2016,02,20,04,25,3.30
2016,02,20,04,26,3.30
2016,02,20,04,27,3.30
2016,02,20,04,28,3.30
2016,02,20,04,29,3.30
2016,02,20,04,30,3.30
2016,02,20,04,31,3.20
2016,02,20,04,32,3.20
2016,02,20,04,33,3.20
2016,02,20,04,34,3.30
2016,02,20,04,35,3.20
2016,02,20,04,36,3.20
2016,02,20,04,37,3.20
2016,02,20,04,38,3.20
2016,02,20,04,39,3.30
2016,02,20,04,40,3.20
2016,02,20,04,41,3.20
2016,02,20,04,42,3.20
2016,02,20,04,43,3.20
2016,02,20,04,44,3.20
2016,02,20,04,45,3.20
2016,02,20,04,46,3.20
2016,02,20,04,47,3.20
2016,02,20,04,48,3.20
2016,02,20,04,49,3.20
2016,02,20,04,50,3.20
2016,02,20,04,51,3.20
2016,02,20,04,52,3.20
2016,02,20,04,53,3.20
2016,02,20,04,54,3.20
2016,02,20,04,55,3.20
2016,02,20,04,56,3.20
2016,02,20,04,57,3.20
2016,02,20,04,58,3.20
2016,02,20,04,59,3.20
2016,02,20,05,00,3.20
2016,02,20,05,01,3.20
2016,02,20,05,02,3.20
2016,02,20,05,03,3.20
2016,02,20,05,04,3.10
2016,02,20,05,05,3.10
2016,02,20,05,06,3.10
2016,02,20,05,07,3.10
2016,02,20,05,08,3.10
2016,02,20,05,09,3.10
2016,02,20,05,10,3.10
2016,02,20,05,11,3.10
2016,02,20,05,12,3.10
2016,02,20,05,13,3.10
2016,02,20,05,14,3.10
2016,02,20,05,15,3.10
2016,02,20,05,16,3.10
2016,02,20,05,17,3.00
2016,02,20,05,18,3.00
2016,02,20,05,19,2.90
2016,02,20,05,20,2.90
2016,02,20,05,21,2.90
2016,02,20,05,22,2.90
2016,02,20,05,23,2.90
2016,02,20,05,24,2.90
2016,02,20,05,25,2.90
2016,02,20,05,26,2.90
2016,02,20,05,27,2.90
2016,02,20,05,28,2.90
2016,02,20,05,29,2.90
2016,02,20,05,30,2.90
2016,02,20,05,31,2.90
2016,02,20,05,32,2.90
2016,02,20,05,33,2.90
2016,02,20,05,34,2.90
2016,02,20,05,35,2.90
2016,02,20,05,36,2.80
2016,02,20,05,37,2.80
2016,02,20,05,38,2.80
2016,02,20,05,39,2.80
2016,02,20,05,40,2.80
2016,02,20,05,41,2.80
2016,02,20,05,42,2.80
2016,02,20,05,43,2.80
2016,02,20,05,44,2.70
2016,02,20,05,45,2.70
2016,02,20,05,46,2.70
2016,02,20,05,47,2.70
2016,02,20,05,48,2.70
2016,02,20,05,49,2.70
2016,02,20,05,50,2.70
2016,02,20,05,51,2.70
2016,02,20,05,52,2.70
2016,02,20,05,53,2.60
2016,02,20,05,54,2.60
2016,02,20,05,55,2.60
2016,02,20,05,56,2.60
2016,02,20,05,57,2.50
2016,02,20,05,58,2.50
2016,02,20,05,59,2.40
2016,02,20,06,00,2.40
2016,02,20,06,01,2.40
2016,02,20,06,02,2.40
2016,02,20,06,03,2.40
2016,02,20,06,04,2.40
2016,02,20,06,05,2.30
2016,02,20,06,06,2.30
2016,02,20,06,07,2.30
2016,02,20,06,08,2.30
2016,02,20,06,09,2.30
2016,02,20,06,10,2.30
2016,02,20,06,11,2.30
2016,02,20,06,12,2.30
2016,02,20,06,13,2.30
2016,02,20,06,14,2.30
2016,02,20,06,15,2.30
2016,02,20,06,16,2.30
2016,02,20,06,17,2.30
2016,02,20,06,18,2.30
2016,02,20,06,19,2.30
2016,02,20,06,20,2.30
2016,02,20,06,21,2.30
2016,02,20,06,22,2.30
2016,02,20,06,23,2.30
2016,02,20,06,24,2.30
2016,02,20,06,25,2.30
2016,02,20,06,26,2.30
2016,02,20,06,27,2.30
2016,02,20,06,28,2.30
2016,02,20,06,29,2.20
2016,02,20,06,30,2.20
2016,02,20,06,31,2.20
2016,02,20,06,32,2.20
2016,02,20,06,33,2.20
2016,02,20,06,34,2.20
2016,02,20,06,35,2.20
2016,02,20,06,36,2.20
2016,02,20,06,37,2.10
2016,02,20,06,38,2.10
2016,02,20,06,39,2.10
2016,02,20,06,40,2.10
2016,02,20,06,41,2.10
2016,02,20,06,42,2.10
2016,02,20,06,43,2.10
2016,02,20,06,44,2.00
2016,02,20,06,45,2.00
2016,02,20,06,46,1.90
2016,02,20,06,47,1.90
2016,02,20,06,48,1.90
2016,02,20,06,49,1.90
2016,02,20,06,50,1.90
2016,02,20,06,51,1.80
2016,02,20,06,52,1.80
2016,02,20,06,53,1.80
2016,02,20,06,54,1.80
2016,02,20,06,55,1.80
2016,02,20,06,56,1.80
2016,02,20,06,57,1.80
2016,02,20,06,58,1.80
2016,02,20,06,59,1.80
2016,02,20,07,00,1.70
2016,02,20,07,01,1.70
2016,02,20,07,02,1.70
2016,02,20,07,03,1.70
2016,02,20,07,04,1.70
2016,02,20,07,05,1.70
2016,02,20,07,06,1.70
2016,02,20,07,07,1.70
2016,02,20,07,08,1.70
2016,02,20,07,09,1.70
2016,02,20,07,10,1.70
2016,02,20,07,11,1.70
2016,02,20,07,12,1.70
2016,02,20,07,13,1.70
2016,02,20,07,14,1.70
2016,02,20,07,15,1.70
2016,02,20,07,16,1.60
2016,02,20,07,17,1.60
2016,02,20,07,18,1.60
2016,02,20,07,19,1.60
2016,02,20,07,20,1.60
2016,02,20,07,21,1.60
2016,02,20,07,22,1.50
2016,02,20,07,23,1.50
2016,02,20,07,24,1.40
2016,02,20,07,25,1.40
2016,02,20,07,26,1.40
2016,02,20,07,27,1.50
2016,02,20,07,28,1.50
2016,02,20,07,29,1.50
2016,02,20,07,30,1.50
2016,02,20,07,31,1.60
2016,02,20,07,32,1.60
2016,02,20,07,33,1.60
2016,02,20,07,34,1.60
2016,02,20,07,35,1.60
2016,02,20,07,36,1.60
2016,02,20,07,37,1.60
2016,02,20,07,38,1.60
2016,02,20,07,39,1.60
2016,02,20,07,40,1.60
2016,02,20,07,41,1.60
2016,02,20,07,42,1.60
2016,02,20,07,43,1.60
2016,02,20,07,44,1.60
2016,02,20,07,45,1.60
2016,02,20,07,46,1.60
2016,02,20,07,47,1.60
2016,02,20,07,48,1.60
2016,02,20,07,49,1.60
2016,02,20,07,50,1.60
2016,02,20,07,51,1.60
2016,02,20,07,52,1.60
2016,02,20,07,53,1.60
2016,02,20,07,54,1.60
2016,02,20,07,55,1.60
2016,02,20,07,56,1.60
2016,02,20,07,57,1.60
2016,02,20,07,58,1.60
2016,02,20,07,59,1.60
2016,02,20,08,00,1.60
2016,02,20,08,01,1.60
2016,02,20,08,02,1.60
2016,02,20,08,03,1.60
2016,02,20,08,04,1.60
2016,02,20,08,05,1.60
2016,02,20,08,06,1.60
2016,02,20,08,07,1.60
2016,02,20,08,08,1.60
2016,02,20,08,09,1.60
2016,02,20,08,10,1.60
2016,02,20,08,11,1.60
2016,02,20,08,12,1.60
2016,02,20,08,13,1.60
2016,02,20,08,14,1.60
2016,02,20,08,15,1.60
2016,02,20,08,16,1.60
2016,02,20,08,17,1.60
2016,02,20,08,18,1.60
2016,02,20,08,19,1.60
2016,02,20,08,20,1.60
2016,02,20,08,21,1.60
2016,02,20,08,22,1.60
2016,02,20,08,23,1.60
2016,02,20,08,24,1.60
2016,02,20,08,25,1.60
2016,02,20,08,26,1.60
2016,02,20,08,27,1.60
2016,02,20,08,28,1.60
2016,02,20,08,29,1.60
2016,02,20,08,30,1.60
2016,02,20,08,31,1.60
2016,02,20,08,32,1.60
2016,02,20,08,33,1.60
2016,02,20,08,34,1.60
2016,02,20,08,35,1.60
2016,02,20,08,36,1.60
2016,02,20,08,37,1.60
2016,02,20,08,38,1.60
2016,02,20,08,39,1.60
2016,02,20,08,40,1.60
2016,02,20,08,41,1.60
2016,02,20,08,42,1.60
2016,02,20,08,43,1.70
2016,02,20,08,44,1.70
2016,02,20,08,45,1.70
2016,02,20,08,46,1.70
2016,02,20,08,47,1.70
2016,02,20,08,48,1.70
2016,02,20,08,49,1.70
2016,02,20,08,50,1.70
2016,02,20,08,51,1.70
2016,02,20,08,52,1.70
2016,02,20,08,53,1.80
2016,02,20,08,54,1.80
2016,02,20,08,55,1.80
2016,02,20,08,56,1.80
2016,02,20,08,57,1.80
2016,02,20,08,58,1.80
2016,02,20,08,59,1.90
2016,02,20,09,00,1.90
2016,02,20,09,01,1.90
2016,02,20,09,02,1.90
2016,02,20,09,03,1.90
2016,02,20,09,04,1.90
2016,02,20,09,05,1.90
2016,02,20,09,06,2.00
2016,02,20,09,07,2.00
2016,02,20,09,08,2.00
2016,02,20,09,09,2.10
2016,02,20,09,10,2.10
2016,02,20,09,11,2.10
2016,02,20,09,12,2.10
2016,02,20,09,13,2.10
2016,02,20,09,14,2.20
2016,02,20,09,15,2.20
2016,02,20,09,16,2.20
2016,02,20,09,17,2.20
2016,02,20,09,18,2.20
2016,02,20,09,19,2.20
2016,02,20,09,20,2.20
2016,02,20,09,21,2.20
2016,02,20,09,22,2.20
2016,02,20,09,23,2.20
2016,02,20,09,24,2.20
2016,02,20,09,25,2.20
2016,02,20,09,26,2.30
2016,02,20,09,27,2.30
2016,02,20,09,28,2.30
2016,02,20,09,29,2.40
2016,02,20,09,30,2.40
2016,02,20,09,31,2.40
2016,02,20,09,32,2.50
2016,02,20,09,33,2.50
2016,02,20,09,34,2.60
2016,02,20,09,35,2.60
2016,02,20,09,36,2.70
2016,02,20,09,37,2.80
2016,02,20,09,38,2.80
2016,02,20,09,39,2.90
2016,02,20,09,40,2.90
2016,02,20,09,41,3.00
2016,02,20,09,42,3.00
2016,02,20,09,43,3.00
2016,02,20,09,44,3.00
2016,02,20,09,45,3.00
2016,02,20,09,46,3.00
2016,02,20,09,47,3.00
2016,02,20,09,48,3.10
2016,02,20,09,49,3.10
2016,02,20,09,50,3.10
2016,02,20,09,51,3.20
2016,02,20,09,52,3.20
2016,02,20,09,53,3.20
2016,02,20,09,54,3.30
2016,02,20,09,55,3.30
2016,02,20,09,56,3.30
2016,02,20,09,57,3.30
2016,02,20,09,58,3.40
2016,02,20,09,59,3.40
2016,02,20,10,00,3.50
2016,02,20,10,01,3.50
2016,02,20,10,02,3.60
2016,02,20,10,03,3.60
2016,02,20,10,04,3.60
2016,02,20,10,05,3.60
2016,02,20,10,06,3.60
2016,02,20,10,07,3.70
2016,02,20,10,08,3.70
2016,02,20,10,09,3.70
2016,02,20,10,10,3.70
2016,02,20,10,11,3.80
2016,02,20,10,12,3.90
2016,02,20,10,13,3.90
2016,02,20,10,14,4.00
2016,02,20,10,15,4.10
2016,02,20,10,16,4.10
2016,02,20,10,17,4.20
2016,02,20,10,18,4.10
2016,02,20,10,19,4.10
2016,02,20,10,20,4.00
2016,02,20,10,21,4.00
2016,02,20,10,22,4.00
2016,02,20,10,23,4.00
2016,02,20,10,24,4.10
2016,02,20,10,25,4.10
2016,02,20,10,26,4.10
2016,02,20,10,27,4.10
2016,02,20,10,28,4.10
2016,02,20,10,29,4.10
2016,02,20,10,30,4.10
2016,02,20,10,31,4.10
2016,02,20,10,32,4.20
2016,02,20,10,33,4.30
2016,02,20,10,34,4.30
2016,02,20,10,35,4.30
2016,02,20,10,36,4.40
2016,02,20,10,37,4.40
2016,02,20,10,38,4.40
2016,02,20,10,39,4.50
2016,02,20,10,40,4.50
2016,02,20,10,41,4.50
2016,02,20,10,42,4.50
2016,02,20,10,43,4.50
2016,02,20,10,44,4.60
2016,02,20,10,45,4.60
2016,02,20,10,46,4.60
2016,02,20,10,47,4.60
2016,02,20,10,48,4.60
2016,02,20,10,49,4.60
2016,02,20,10,50,4.60
2016,02,20,10,51,4.70
2016,02,20,10,52,4.70
2016,02,20,10,53,4.80
2016,02,20,10,54,4.80
2016,02,20,10,55,4.80
2016,02,20,10,56,4.70
2016,02,20,10,57,4.80
2016,02,20,10,58,4.80
2016,02,20,10,59,4.80
2016,02,20,11,00,4.90
2016,02,20,11,01,5.00
2016,02,20,11,02,5.10
2016,02,20,11,03,5.20
2016,02,20,11,04,5.30
2016,02,20,11,05,5.40
2016,02,20,11,06,5.50
2016,02,20,11,07,5.50
2016,02,20,11,08,5.60
2016,02,20,11,09,5.70
2016,02,20,11,10,5.80
2016,02,20,11,11,5.90
2016,02,20,11,12,6.00
2016,02,20,11,13,6.10
2016,02,20,11,14,6.10
2016,02,20,11,15,6.10
2016,02,20,11,16,6.20
2016,02,20,11,17,6.20
2016,02,20,11,18,6.20
2016,02,20,11,19,6.30
2016,02,20,11,20,6.30
2016,02,20,11,21,6.40
2016,02,20,11,22,6.40
2016,02,20,11,23,6.40
2016,02,20,11,24,6.50
2016,02,20,11,25,6.50
2016,02,20,11,26,6.60
2016,02,20,11,27,6.60
2016,02,20,11,28,6.60
2016,02,20,11,29,6.70
2016,02,20,11,30,6.70
2016,02,20,11,31,6.60
2016,02,20,11,32,6.60
2016,02,20,11,33,6.60
2016,02,20,11,34,6.70
2016,02,20,11,35,6.60
2016,02,20,11,36,6.60
2016,02,20,11,37,6.60
2016,02,20,11,38,6.60
2016,02,20,11,39,6.50
2016,02,20,11,40,6.50
2016,02,20,11,41,6.50
2016,02,20,11,42,6.50
2016,02,20,11,43,6.40
2016,02,20,11,44,6.40
2016,02,20,11,45,6.40
2016,02,20,11,46,6.40
2016,02,20,11,47,6.40
2016,02,20,11,48,6.40
2016,02,20,11,49,6.40
2016,02,20,11,50,6.30
2016,02,20,11,51,6.30
2016,02,20,11,52,6.30
2016,02,20,11,53,6.30
2016,02,20,11,54,6.30
2016,02,20,11,55,6.30
2016,02,20,11,56,6.30
2016,02,20,11,57,6.30
2016,02,20,11,58,6.30
2016,02,20,11,59,6.20
2016,02,20,12,00,6.20
2016,02,20,12,01,6.20
2016,02,20,12,02,6.20
2016,02,20,12,03,6.20
2016,02,20,12,04,6.20
2016,02,20,12,05,6.30
2016,02,20,12,06,6.30
2016,02,20,12,07,6.30
2016,02,20,12,08,6.40
2016,02,20,12,09,6.40
2016,02,20,12,10,6.50
2016,02,20,12,11,6.60
2016,02,20,12,12,6.70
2016,02,20,12,13,6.80
2016,02,20,12,14,6.90
2016,02,20,12,15,7.00
2016,02,20,12,16,7.10
2016,02,20,12,17,7.10
2016,02,20,12,18,7.20
2016,02,20,12,19,7.30
2016,02,20,12,20,7.40
2016,02,20,12,21,7.50
2016,02,20,12,22,7.50
2016,02,20,12,23,7.60
2016,02,20,12,24,7.70
2016,02,20,12,25,7.70
2016,02,20,12,26,7.80
2016,02,20,12,27,7.80
2016,02,20,12,28,7.80
2016,02,20,12,29,7.80
2016,02,20,12,30,7.80
2016,02,20,12,31,7.90
2016,02,20,12,32,7.90
2016,02,20,12,33,7.90
2016,02,20,12,34,7.90
2016,02,20,12,35,7.80
2016,02,20,12,36,7.80
2016,02,20,12,37,7.80
2016,02,20,12,38,7.80
2016,02,20,12,39,7.80
2016,02,20,12,40,7.80
2016,02,20,12,41,7.80
2016,02,20,12,42,7.80
2016,02,20,12,43,7.80
2016,02,20,12,44,7.80
2016,02,20,12,45,7.80
2016,02,20,12,46,7.80
2016,02,20,12,47,7.80
2016,02,20,12,48,7.80
2016,02,20,12,49,7.80
2016,02,20,12,50,7.80
2016,02,20,12,51,7.80
2016,02,20,12,52,7.80
2016,02,20,12,53,7.80
2016,02,20,12,54,7.90
2016,02,20,12,55,7.90
2016,02,20,12,56,8.00
2016,02,20,12,57,7.90
2016,02,20,12,58,7.90
2016,02,20,12,59,7.90
2016,02,20,13,00,7.90
2016,02,20,13,01,7.90
2016,02,20,13,02,7.90
2016,02,20,13,03,7.90
2016,02,20,13,04,7.90
2016,02,20,13,05,7.90
2016,02,20,13,06,7.90
2016,02,20,13,07,8.00
2016,02,20,13,08,8.00
2016,02,20,13,09,8.00
2016,02,20,13,10,8.00
2016,02,20,13,11,8.00
2016,02,20,13,12,8.00
2016,02,20,13,13,8.10
2016,02,20,13,14,8.10
2016,02,20,13,15,8.10
2016,02,20,13,16,8.00
2016,02,20,13,17,8.00
2016,02,20,13,18,7.90
2016,02,20,13,19,7.90
2016,02,20,13,20,7.90
2016,02,20,13,21,7.90
2016,02,20,13,22,7.90
2016,02,20,13,23,7.90
2016,02,20,13,24,7.90
2016,02,20,13,25,7.90
2016,02,20,13,26,7.90
2016,02,20,13,27,7.90
2016,02,20,13,28,7.90
2016,02,20,13,29,8.00
2016,02,20,13,30,8.00
2016,02,20,13,31,8.00
2016,02,20,13,32,8.00
2016,02,20,13,33,8.00
2016,02,20,13,34,8.10
2016,02,20,13,35,8.10
2016,02,20,13,36,8.10
2016,02,20,13,37,8.20
2016,02,20,13,38,8.20
2016,02,20,13,39,8.20
2016,02,20,13,40,8.30
2016,02,20,13,41,8.30
2016,02,20,13,42,8.30
2016,02,20,13,43,8.30
2016,02,20,13,44,8.40
2016,02,20,13,45,8.40
2016,02,20,13,46,8.40
2016,02,20,13,47,8.40
2016,02,20,13,48,8.50
2016,02,20,13,49,8.50
2016,02,20,13,50,8.60
2016,02,20,13,51,8.60
2016,02,20,13,52,8.60
2016,02,20,13,53,8.70
2016,02,20,13,54,8.60
2016,02,20,13,55,8.70
2016,02,20,13,56,8.70
2016,02,20,13,57,8.60
2016,02,20,13,58,8.60
2016,02,20,13,59,8.70
2016,02,20,14,00,8.70
2016,02,20,14,01,8.70
2016,02,20,14,02,8.80
2016,02,20,14,03,8.80
2016,02,20,14,04,8.80
2016,02,20,14,05,8.90
2016,02,20,14,06,8.90
2016,02,20,14,07,8.90
2016,02,20,14,08,8.90
2016,02,20,14,09,8.90
2016,02,20,14,10,8.80
2016,02,20,14,11,8.80
2016,02,20,14,12,8.80
2016,02,20,14,13,8.80
2016,02,20,14,14,8.80
2016,02,20,14,15,8.80
2016,02,20,14,16,8.80
2016,02,20,14,17,8.80
2016,02,20,14,18,8.80
2016,02,20,14,19,8.80
2016,02,20,14,20,8.80
2016,02,20,14,21,8.80
2016,02,20,14,22,8.80
2016,02,20,14,23,8.80
2016,02,20,14,24,8.80
2016,02,20,14,25,8.80
2016,02,20,14,26,8.80
2016,02,20,14,27,8.80
2016,02,20,14,28,8.70
2016,02,20,14,29,8.70
2016,02,20,14,30,8.70
2016,02,20,14,31,8.70
2016,02,20,14,32,8.70
2016,02,20,14,33,8.60
2016,02,20,14,34,8.60
2016,02,20,14,35,8.50
2016,02,20,14,36,8.50
2016,02,20,14,37,8.50
2016,02,20,14,38,8.40
2016,02,20,14,39,8.40
2016,02,20,14,40,8.50
2016,02,20,14,41,8.50
2016,02,20,14,42,8.50
2016,02,20,14,43,8.60
2016,02,20,14,44,8.60
2016,02,20,14,45,8.60
2016,02,20,14,46,8.50
2016,02,20,14,47,8.50
2016,02,20,14,48,8.40
2016,02,20,14,49,8.40
2016,02,20,14,50,8.30
2016,02,20,14,51,8.30
2016,02,20,14,52,8.30
2016,02,20,14,53,8.30
2016,02,20,14,54,8.20
2016,02,20,14,55,8.10
2016,02,20,14,56,8.10
2016,02,20,14,57,8.00
2016,02,20,14,58,7.90
2016,02,20,14,59,7.90
2016,02,20,15,00,7.80
2016,02,20,15,01,7.80
2016,02,20,15,02,7.80
2016,02,20,15,03,7.80
2016,02,20,15,04,7.80
2016,02,20,15,05,7.80
2016,02,20,15,06,7.80
2016,02,20,15,07,7.80
2016,02,20,15,08,7.80
2016,02,20,15,09,7.80
2016,02,20,15,10,7.80
2016,02,20,15,11,7.80
2016,02,20,15,12,7.80
2016,02,20,15,13,7.80
2016,02,20,15,14,7.90
2016,02,20,15,15,7.90
2016,02,20,15,16,7.90
2016,02,20,15,17,7.80
2016,02,20,15,18,7.80
2016,02,20,15,19,7.80
2016,02,20,15,20,7.80
2016,02,20,15,21,7.80
2016,02,20,15,22,7.80
2016,02,20,15,23,7.80
2016,02,20,15,24,7.80
2016,02,20,15,25,7.80
2016,02,20,15,26,7.70
2016,02,20,15,27,7.70
2016,02,20,15,28,7.70
2016,02,20,15,29,7.70
2016,02,20,15,30,7.70
2016,02,20,15,31,7.70
2016,02,20,15,32,7.70
2016,02,20,15,33,7.70
2016,02,20,15,34,7.60
2016,02,20,15,35,7.60
2016,02,20,15,36,7.60
2016,02,20,15,37,7.60
2016,02,20,15,38,7.70
2016,02,20,15,39,7.70
2016,02,20,15,40,7.70
2016,02,20,15,41,7.70
2016,02,20,15,42,7.70
2016,02,20,15,43,7.80
2016,02,20,15,44,7.80
2016,02,20,15,45,7.80
2016,02,20,15,46,7.80
2016,02,20,15,47,7.80
2016,02,20,15,48,7.80
2016,02,20,15,49,7.70
2016,02,20,15,50,7.70
2016,02,20,15,51,7.70
2016,02,20,15,52,7.70
2016,02,20,15,53,7.70
2016,02,20,15,54,7.70
2016,02,20,15,55,7.70
2016,02,20,15,56,7.70
2016,02,20,15,57,7.70
2016,02,20,15,58,7.70
2016,02,20,15,59,7.70
2016,02,20,16,00,7.60
2016,02,20,16,01,7.60
2016,02,20,16,02,7.60
2016,02,20,16,03,7.60
2016,02,20,16,04,7.60
2016,02,20,16,05,7.60
2016,02,20,16,06,7.60
2016,02,20,16,07,7.60
2016,02,20,16,08,7.60
2016,02,20,16,09,7.60
2016,02,20,16,10,7.60
2016,02,20,16,11,7.60
2016,02,20,16,12,7.60
2016,02,20,16,13,7.60
2016,02,20,16,14,7.60
2016,02,20,16,15,7.50
2016,02,20,16,16,7.50
2016,02,20,16,17,7.50
2016,02,20,16,18,7.50
2016,02,20,16,19,7.60
2016,02,20,16,20,7.60
2016,02,20,16,21,7.60
2016,02,20,16,22,7.60
2016,02,20,16,23,7.60
2016,02,20,16,24,7.60
2016,02,20,16,25,7.60
2016,02,20,16,26,7.50
2016,02,20,16,27,7.50
2016,02,20,16,28,7.50
2016,02,20,16,29,7.50
2016,02,20,16,30,7.50
2016,02,20,16,31,7.50
2016,02,20,16,32,7.40
2016,02,20,16,33,7.40
2016,02,20,16,34,7.40
2016,02,20,16,35,7.30
2016,02,20,16,36,7.30
2016,02,20,16,37,7.30
2016,02,20,16,38,7.20
2016,02,20,16,39,7.20
2016,02,20,16,40,7.20
2016,02,20,16,41,7.20
2016,02,20,16,42,7.20
2016,02,20,16,43,7.20
2016,02,20,16,44,7.20
2016,02,20,16,45,7.20
2016,02,20,16,46,7.20
2016,02,20,16,47,7.20
2016,02,20,16,48,7.20
2016,02,20,16,49,7.10
2016,02,20,16,50,7.10
2016,02,20,16,51,7.10
2016,02,20,16,52,7.10
2016,02,20,16,53,7.10
2016,02,20,16,54,7.10
2016,02,20,16,55,7.10
2016,02,20,16,56,7.00
2016,02,20,16,57,7.00
2016,02,20,16,58,6.90
2016,02,20,16,59,6.90
2016,02,20,17,00,6.90
2016,02,20,17,01,6.90
2016,02,20,17,02,6.90
2016,02,20,17,03,6.80
2016,02,20,17,04,6.80
2016,02,20,17,05,6.80
2016,02,20,17,06,6.80
2016,02,20,17,07,6.80
2016,02,20,17,08,6.80
2016,02,20,17,09,6.80
2016,02,20,17,10,6.70
2016,02,20,17,11,6.70
2016,02,20,17,12,6.70
2016,02,20,17,13,6.70
2016,02,20,17,14,6.70
2016,02,20,17,15,6.70
2016,02,20,17,16,6.70
2016,02,20,17,17,6.70
2016,02,20,17,18,6.60
2016,02,20,17,19,6.60
2016,02,20,17,20,6.60
2016,02,20,17,21,6.60
2016,02,20,17,22,6.50
2016,02,20,17,23,6.50
2016,02,20,17,24,6.50
2016,02,20,17,25,6.40
2016,02,20,17,26,6.40
2016,02,20,17,27,6.40
2016,02,20,17,28,6.40
2016,02,20,17,29,6.30
2016,02,20,17,30,6.30
2016,02,20,17,31,6.30
2016,02,20,17,32,6.30
2016,02,20,17,33,6.30
2016,02,20,17,34,6.30
2016,02,20,17,35,6.20
2016,02,20,17,36,6.20
2016,02,20,17,37,6.20
2016,02,20,17,38,6.20
2016,02,20,17,39,6.20
2016,02,20,17,40,6.10
2016,02,20,17,41,6.10
2016,02,20,17,42,6.10
2016,02,20,17,43,6.10
2016,02,20,17,44,6.00
2016,02,20,17,45,6.00
2016,02,20,17,46,5.90
2016,02,20,17,47,5.90
2016,02,20,17,48,5.90
2016,02,20,17,49,5.90
2016,02,20,17,50,5.90
2016,02,20,17,51,5.90
2016,02,20,17,52,5.90
2016,02,20,17,53,5.80
2016,02,20,17,54,5.80
2016,02,20,17,55,5.80
2016,02,20,17,56,5.80
2016,02,20,17,57,5.80
2016,02,20,17,58,5.80
2016,02,20,17,59,5.80
2016,02,20,18,00,5.70
2016,02,20,18,01,5.70
2016,02,20,18,02,5.70
2016,02,20,18,03,5.70
2016,02,20,18,04,5.70
2016,02,20,18,05,5.70
2016,02,20,18,06,5.70
2016,02,20,18,07,5.70